Regional Weather Roundup
Issued by NWS

Home | Current Version | Previous Version | Graphics & Text | Print | Product List | Glossary On
Versions: 1 2 3 4 5 6 7 8 9 10 11 12 13 14 15 16 17 18 19 20 21 22 23 24 25 26 27 28 29 30 31 32 33 34 35 36 37 38 39 40 41 42 43 44 45 46 47 48 49 50
000
ASUS43 KMPX 290501
RWRMN
WEATHER ROUNDUP FOR MINNESOTA
NATIONAL WEATHER SERVICE TWIN CITIES/CHANHASSEN MN
1200 AM CDT WED JUL 29 2015


NOTE: "FAIR" INDICATES FEW OR NO CLOUDS BELOW 12,000 FEET WITH NO
SIGNIFICANT WEATHER AND/OR OBSTRUCTIONS TO VISIBILITY. N/A MEANS
CURRENT SKY AND/OR WEATHER CONDITIONS ARE NOT AVAILABLE.

MNZ060>063-068>070-290600-
   Twin Cities Metro

CITY           SKY/WX    TMP DP  RH WIND       PRES   REMARKS
TWIN CITIES    MOCLDY    73  59  61 SW7       29.92R
ST PAUL        PTCLDY    72  60  66 W6        29.92R
CRYSTAL        PTCLDY    73  59  61 SW7       29.91S
BLAINE         CLEAR     73  61  64 SW6       29.92S
LAKEVILLE      MOCLDY    66  61  82 SW3       29.95R
EDEN PRAIRIE   PTCLDY    69  61  75 SW6       29.92R
SOUTH ST PAUL  PTCLDY    71  60  67 SW5       29.92S
LAKE ELMO      FAIR      70  61  73 SW6       29.93F
$$
MNZ001>005-007-008-013>017-022>024-027-028-290600-
   Northwest Minnesota

CITY           SKY/WX    TMP DP  RH WIND       PRES   REMARKS
BEMIDJI        CLEAR     66  48  52 SW20G32   29.71F
HALLOCK        CLOUDY    64  55  72 SW22G31   29.44F
ROSEAU         CLOUDY    66  54  63 S21G28    29.48F
WARROAD        CLOUDY    66  54  63 S16G24    29.50F
THIEF RVR FALL CLOUDY    64  48  55 SW25G33   29.58F
CROOKSTON      CLOUDY    64  52  63 W31G44    29.61S
FOSSTON        CLOUDY    63  50  63 SW26G35   29.68F
DETROIT LAKES  CLEAR     66  46  48 W17G36    29.79F
MOORHEAD       CLEAR     66  48  52 SW17G25   29.76S
PARK RAPIDS    CLEAR     68  48  48 SW21G30   29.79S
MAHNOMEN       MOCLDY    65  48  54 SW16G36   29.72F
$$
MNZ006-009>011-018-025>026-290600-
   North Central Minnesota

CITY           SKY/WX    TMP DP  RH WIND       PRES   REMARKS
BAUDETTE       PTCLDY    66  50  56 S18G28    29.56F
FLAG ISLAND    MOCLDY    68  54  60 SW24G38   29.47F
INTL FALLS     CLEAR     67  53  61 SW12G24   29.63F
WASKISH        CLEAR     66  52  59 S15G26    29.64F
BIG FORK       CLEAR     68  50  52 SW16      29.71F
LONGVILLE      CLEAR     68  52  56 SW12G24   29.79S
GRAND RAPIDS   CLEAR     66  52  59 SW9G16    29.78F
CRANE LAKE     PTCLDY    66  55  68 S6        29.71F
ORR            CLEAR     64  54  68 S7        29.69F
COOK           CLEAR     68  55  64 SW9       29.74S
WALKER         FAIR      67  48  51 SW13G26   29.76S
$$
MNZ012-019>021-037-290600-
   Northeast Minnesota

CITY           SKY/WX    TMP DP  RH WIND       PRES   REMARKS
DULUTH         CLEAR     69  57  65 W12       29.82R
ELY            CLEAR     70  55  60 SW10      29.76S
HIBBING        CLEAR     67  56  67 S6        29.77S
EVELETH        PTCLDY    68  54  60 S13       29.79S
DULUTH HARBOR  CLEAR     73  63  68 SW12      29.80S
TWO HARBORS    CLEAR     72  63  73 SW7       29.78R
SILVER BAY     CLEAR     73  57  56 SW6       29.77R
GRAND MARAIS     N/A     64  60  87 CALM      29.72S
G MARAIS ARPRT MOCLDY    70  63  78 S12       29.79R
$$
MNZ029>031-032-039>041-046>048-054>057-064-290600-
   West Central Minnesota

CITY           SKY/WX    TMP DP  RH WIND       PRES   REMARKS
FERGUS FALLS   CLEAR     64  52  63 SW12      29.84S
WHEATON        CLEAR     64  48  55 SW8       29.90F
MORRIS         CLEAR     66  54  63 SW10      29.93R
ALEXANDRIA     CLEAR     68  51  54 SW14      29.93R
ELBOW LAKE     FAIR      63  52  66 SW10      29.89R
WADENA         CLEAR     66  50  55 SW15G25   29.84S
GLENWOOD       CLEAR     64  54  68 SW13      29.95R
APPLETON       CLEAR     68  54  60 W13       29.96R
BENSON         CLEAR     64  54  68 W9G16     29.96R
ORTONVILLE     CLEAR     66  52  59 SW7       29.95R
MADISON        CLEAR     63  54  72 SW8       29.98R
WILLMAR        FAIR      63  59  88 SW8       29.97F
$$
MNZ033>034-036-042>043-049>051-058-059-290600-
   Central Minnesota

CITY           SKY/WX    TMP DP  RH WIND       PRES   REMARKS
ST CLOUD       FAIR      69  54  58 W13       29.90S
SAUK CENTRE    FAIR      64  53  68 SW8       29.94R
PAYNESVILLE    CLEAR     64  56  75 S9        29.94F
AITKIN         CLEAR     70  54  56 SW13G20   29.83R
PINE RIVER     CLEAR     68  52  56 SW9G17    29.86R
BRAINERD       CLEAR     69  51  52 SW18G25   29.85S
STAPLES        CLEAR     66  48  52 SW10G16   29.86S
LONG PRAIRIE   FAIR      63  52  67 S7        29.92R
LITTLE FALLS   CLEAR     64  52  63 SW3       29.90S
LITCHFIELD     CLEAR     70  61  73 W6        29.94F
BUFFALO        CLEAR     68  60  76 SW5       29.94R
MAPLE LAKE     CLEAR     68  63  83 SW7       29.94S
$$
MNZ037-044-045-052-053-290600-
   East Central Minnesota

CITY           SKY/WX    TMP DP  RH WIND       PRES   REMARKS
PRINCETON      CLEAR     70  59  68 SW5       29.90F
MORA           CLEAR     68  57  68 SW8       29.90S
CAMBRIDGE      CLEAR     72  57  60 SW6       29.90R
RUSH CITY      CLEAR     69  58  66 SW6       29.91R
MOOSE LAKE     CLEAR     64  59  82 SW8       29.83F
HINCKLEY       FAIR      68  59  73 SW8       29.88S
CLOQUET        CLEAR     70  55  60 SW10      29.83S
MCGREGOR       CLEAR     68  54  60 SW9       29.84S
$$
MNZ071>073-080-081-089-090-097-098-290600-
   Southwest Minnesota

CITY           SKY/WX    TMP DP  RH WIND       PRES   REMARKS
MONTEVIDEO     CLEAR     66  55  68 W7        30.00R
GRANITE FALLS  CLEAR     61  57  87 CALM      30.00S
CANBY          CLEAR     66  54  66 SW6       30.01R
MARSHALL       CLEAR     64  54  68 W7        30.02R
REDWOOD FALLS  PTCLDY    68  57  68 W13       29.97S
OLIVIA         CLEAR     61  54  77 W7        29.96F
PIPESTONE      CLEAR     63  57  82 W3        30.05S
WINDOM         MOCLDY    63  57  82 CALM      30.01R
WORTHINGTON    PTCLDY    63  55  77 W6        30.03R
JACKSON        CLOUDY    63  59  88 W6        30.01F
SLAYTON        CLEAR     63  58  82 CALM      30.04S
$$
MNZ065>067-074>077-082>085-091>093-290600-
   South Central Minnesota

CITY           SKY/WX    TMP DP  RH WIND       PRES   REMARKS
MANKATO        CLOUDY    68  59  73 S6        29.97R
NEW ULM        MOCLDY    63  61  94 W6        29.97S
ST JAMES       CLOUDY    64  61  88 SW6       29.99S
FAIRMONT       CLOUDY    66  55  68 SW5       30.00R
GLENCOE        PTCLDY    68  62  82 SW6       29.95R
FARIBAULT      CLOUDY    68  63  83 SW5       29.96S
OWATONNA       CLOUDY    66  63  88 CALM      29.97S
WASECA         CLOUDY    63  61  94 CALM      29.98F
ALBERT LEA     CLOUDY    70  64  83 CALM      29.99S
$$
MNZ078>079-086>088-094>096-290600-
   Southeast Minnesota

CITY           SKY/WX    TMP DP  RH WIND       PRES   REMARKS
ROCHESTER      CLOUDY    72  64  76 W8        29.98R
RED WING       CLOUDY    72  64  78 W7        29.92S
STANTON        CLOUDY    68  62  80 SW5       29.94R
DODGE CENTER   CLOUDY    72  61  68 W10       29.97S
WINONA         CLOUDY    79  68  69 NW13G18   29.92R
AUSTIN         CLOUDY    73  64  73 W7        29.98R
PRESTON        CLOUDY    73  69  89 W9        29.98R
$$
ABBREVIATIONS USED IN REMARKS
   TC - TEMPERATURES IN CELSIUS
  WCI - WIND CHILL INDEX
   HX - HEAT INDEX
  VSB - VISIBILITY
$$



USA.gov is the U.S. government's official web portal to all federal, state and local government web resources and services.